ONEWEB-0395 (50475 NORAD) Tracking and Keplerian Element Data

This shows tracking and keplerian element data for the satellite.

Feedback or suggestion? Click here.




ElementValue
Catalog50475
NameONEWEB-0395
Epoch Orbit130
Epoch Day140.58334491
Epoch Year2022
RAAN316.8535
Inclination87.9751
Eccentricity0.0001784
Argument of Perigee105.7249
Mean Anonmoly98.6204
Mean Motion13.11440027
Decay Rate-0.00040106
L11 50475U 21132G 22140.58334491 -.00040106 00000+0 -11365+0 0 9993
L22 50475 87.9751 316.8535 0001784 105.7249 98.6204 13.11440027 1305

Live tracking and technical data element details for ONEWEB-0395 (NORAD 50475). ONEWEB-0395 can be tracked NOW for your location showing map with azimuth and elevation plus other details from your city location.

Track the satellite on the map from your city or location and see movement details for azimuth, elevation, latitude, longitude, range, height, and movement on the map or in text.







IsCatalogInMostPopularTable: catalog: 50475, numindb: 20
Update: records affected: 1



GetName: 50475 ONEWEB-0395

Hit Count: updated at: Mon, 23 May 2022 21:21:51 GMT